Wind_Speed
3 2 4 2 2 3 1 2 0 3 2 6 5 2 5 6 3 4 8 5 1 5 8 4 5 7 6 7 10 10 10 8 5 4 2 5 17 20 21 29 32 31 31 29 28 31 32 29 25 25 27 25 26 24 21 18 17 15 8 12 12 13 13 12 12 11 10 11 14 16 16 16 14 14 14 14 13 12 12 12 12 11 9 9 9 10 10 10 9 8 8 8 9 9 10 10 10
1 5 7 8 5 1 1 2 1 3 3 5 4 3 4 4 4 6 8 7 4 6 8 4 3 8 9 10 8 7 7 8 7 5 4 11 19 17 24 31 30 30 29 29 28 29 30 29 26 26 27 25 25 24 21 18 15 16 10 12 13 13 14 14 13 12 12 11 13 16 17 17 16 16 15 14 13 13 13 12 12 12 11 10 9 10 10 10 10 10 9 9 8 8 9 10 9
1 6 7 7 6 2 1 2 1 2 3 4 4 4 4 3 6 7 7 6 5 7 5 2 2 5 2 5 3 4 4 3 7 7 6 13 17 19 28 30 28 28 28 29 28 27 28 27 27 26 26 25 25 23 21 19 17 17 12 9 12 14 15 15 14 14 13 12 13 14 15 17 16 15 15 14 13 13 14 13 13 13 13 11 9 9 10 10 10 10 10 10 9 8 8 8 9
5 4 5 1 2 3 2 2 2 1 3 4 4 4 4 5 6 7 6 6 4 6 4 1 1 4 3 5 4 4 4 2 8 10 8 14 17 23 29 28 28 26 26 28 28 27 27 26 26 25 25 25 24 23 21 18 18 18 13 9 11 14 16 15 15 14 14 14 14 13 14 15 14 14 14 13 12 13 14 15 14 13 13 12 10 10 9 10 10 10 10 11 10 8 7 7 8
14 7 2 1 2 2 2 3 2 2 4 3 3 4 5 6 8 7 5 5 4 8 7 2 2 4 4 7 3 1 5 4 7 14 12 16 20 25 27 25 25 23 24 26 27 27 26 25 26 25 24 24 23 23 21 19 17 17 15 12 11 12 14 15 16 15 15 14 14 13 15 15 13 14 13 12 12 12 12 14 15 14 14 13 12 10 9 9 9 9 10 11 10 9 8 8 7
13 14 14 11 4 0 2 4 4 6 5 4 3 4 5 6 8 8 4 2 4 7 9 6 3 3 5 5 4 4 5 4 8 14 15 19 23 25 25 23 21 21 23 24 25 27 27 26 25 25 23 22 22 22 20 18 16 15 15 14 13 12 12 13 15 15 15 15 14 13 14 14 13 13 12 11 12 11 11 13 14 15 16 14 13 11 10 9 8 9 10 11 10 10 9 8 7
3 5 9 11 5 1 4 7 6 6 5 6 5 5 6 7 8 7 4 2 3 6 8 8 3 0 4 2 3 6 4 6 9 13 16 20 23 25 24 21 20 21 22 24 25 26 27 27 26 24 24 22 21 20 19 17 16 15 14 15 14 14 12 11 12 14 15 15 13 14 15 15 14 13 12 12 12 12 12 12 14 16 17 15 13 12 11 9 9 9 10 11 11 10 10 9 8
8 2 1 4 5 4 6 7 6 5 5 5 6 5 5 6 6 6 6 3 3 5 8 7 3 1 4 1 1 5 3 7 12 15 18 20 23 25 23 20 20 22 24 25 25 26 27 27 26 25 24 23 22 20 18 16 15 15 14 14 14 14 14 12 11 12 16 15 14 17 17 16 15 13 12 13 13 12 12 12 13 15 18 15 13 12 11 10 9 9 10 11 11 10 9 9 9
11 5 1 3 6 5 6 6 6 6 5 5 5 5 5 5 5 6 6 6 4 5 10 8 5 2 3 2 2 3 1 9 16 18 20 22 24 25 23 20 20 23 24 25 26 27 27 26 26 26 25 23 22 22 19 16 14 14 14 14 14 14 15 14 11 10 13 15 14 17 18 17 16 15 14 13 13 13 13 13 13 14 17 16 14 13 12 11 10 10 10 10 11 9 9 8 8
6 5 2 4 5 6 6 5 5 5 5 4 5 6 6 6 4 6 6 7 6 5 9 7 5 5 2 2 3 3 3 11 20 21 23 25 25 24 24 23 22 23 25 27 27 28 28 28 27 27 27 24 23 22 20 17 14 14 14 13 13 14 15 16 14 10 9 13 16 18 17 18 17 17 16 14 14 14 14 14 14 14 16 17 15 13 13 12 11 10 9 9 9 8 8 8 8
3 3 1 3 4 5 5 5 5 5 5 3 5 6 5 6 3 6 7 7 6 6 10 6 3 6 2 1 2 3 4 13 21 23 25 26 24 24 25 24 24 25 26 29 29 29 30 29 28 28 28 27 24 22 21 19 16 15 14 13 13 14 15 15 17 14 10 10 15 18 17 20 18 17 17 15 15 14 15 15 15 15 16 18 17 15 14 14 12 10 9 9 8 8 9 9 8
2 2 2 4 4 4 5 7 6 5 5 3 5 6 5 5 4 6 7 7 6 7 11 9 3 3 3 3 2 3 7 16 20 21 25 25 23 25 26 26 26 28 29 30 30 31 32 31 30 29 28 28 27 25 22 21 18 17 16 14 14 14 15 15 17 18 15 11 13 17 18 20 19 17 17 17 17 16 16 15 15 15 15 18 17 16 16 15 13 10 9 9 8 8 8 8 8
3 3 4 5 3 5 7 6 6 5 5 4 5 6 5 4 6 7 5 7 9 8 11 10 4 3 4 4 1 5 11 17 19 21 24 24 24 25 27 29 30 31 31 31 30 31 33 33 32 31 30 28 28 27 24 23 21 19 17 17 15 15 16 16 16 18 19 16 13 16 17 18 20 20 20 20 18 16 18 17 16 15 16 17 17 17 16 15 14 11 10 10 9 9 8 8 8
2 2 4 5 3 5 5 4 4 4 4 5 4 5 4 3 5 5 5 8 10 9 7 8 5 4 5 5 1 6 13 18 20 20 23 24 25 25 28 30 30 32 34 33 30 29 32 33 33 33 32 30 29 28 27 25 23 21 19 18 17 16 16 16 17 17 18 19 16 16 17 17 19 20 22 22 19 17 18 19 18 16 16 17 17 18 17 16 15 13 12 12 10 10 9 8 8
2 1 4 6 4 5 3 3 3 3 4 3 4 4 1 4 3 3 6 7 8 6 4 4 6 3 4 6 4 8 14 18 19 20 23 24 25 24 24 26 25 28 34 34 30 29 31 32 33 33 33 32 30 29 28 26 24 23 22 20 19 18 16 15 16 18 18 20 19 18 17 16 16 16 19 21 20 18 18 20 19 18 18 18 18 19 18 17 16 15 14 14 12 12 10 8 8
2 1 4 5 4 4 2 2 1 2 5 2 4 2 1 5 2 1 4 4 3 3 3 4 6 3 3 5 6 11 15 17 18 19 21 20 20 19 18 20 20 24 31 32 28 29 31 30 31 32 32 32 29 26 25 24 22 23 25 23 21 20 17 15 15 16 19 21 20 19 19 17 16 15 16 19 20 20 19 20 20 20 19 19 19 19 19 19 18 17 17 15 14 13 12 9 8
2 2 6 5 4 5 2 1 1 2 5 3 3 1 0 5 1 1 1 4 2 3 4 4 2 2 3 5 7 11 14 15 17 17 17 17 17 17 18 21 22 23 28 30 28 29 30 28 29 30 30 30 26 22 20 22 22 21 25 26 24 22 19 17 15 14 16 21 21 20 21 20 17 16 16 17 20 20 19 20 21 21 20 20 20 19 20 20 19 19 18 17 15 14 13 10 9
2 3 6 5 4 4 3 3 3 2 4 4 3 2 2 4 2 1 3 1 2 1 3 3 1 1 2 4 7 10 13 14 14 15 16 18 18 18 20 21 23 24 27 30 30 31 30 28 28 28 27 26 24 21 18 21 23 20 22 26 25 24 21 18 17 16 14 19 21 19 21 22 19 19 18 17 19 20 19 20 21 22 22 21 20 20 21 21 19 19 18 17 16 16 15 13 12
5 4 6 5 4 4 3 4 3 2 3 3 2 1 2 4 3 2 1 3 5 3 5 4 4 4 4 6 9 11 12 12 12 14 16 18 18 18 18 19 21 22 26 27 29 33 32 29 29 26 25 26 23 22 18 20 22 19 20 23 23 24 23 21 19 18 16 16 19 19 20 24 24 22 21 20 19 18 18 20 20 21 22 22 22 21 22 21 19 19 17 17 17 17 15 14 14
5 4 7 6 6 7 3 3 3 2 2 1 3 0 1 3 3 3 3 3 6 8 7 7 9 10 10 10 11 12 12 12 13 14 17 18 18 17 17 18 18 19 22 22 24 30 33 32 31 26 25 26 23 22 20 20 21 18 19 20 22 22 21 22 21 19 19 17 18 20 19 23 27 27 25 25 24 20 18 18 18 21 23 23 23 22 22 23 20 20 19 18 18 18 16 15 15
4 5 8 8 5 7 4 2 3 2 1 2 2 1 1 4 3 4 5 3 5 8 7 7 9 11 11 12 12 12 12 14 16 16 17 18 19 18 17 17 17 18 19 19 21 26 29 31 31 27 25 25 23 22 20 20 20 18 18 17 20 20 18 22 22 21 21 19 18 20 20 21 25 28 26 27 28 23 19 20 21 23 23 22 24 23 22 23 23 22 21 20 20 19 17 17 16
6 7 9 8 3 6 4 1 1 1 1 1 2 1 2 2 1 4 7 5 5 6 7 7 7 9 10 11 12 12 13 16 17 17 17 17 19 19 18 18 18 19 19 19 22 23 25 27 27 27 26 24 24 23 20 20 20 19 18 17 19 20 19 21 21 22 23 21 19 19 20 20 24 27 25 24 25 24 22 23 23 22 21 20 21 21 20 21 22 21 20 22 22 20 18 18 17
6 7 6 5 3 5 3 1 1 1 2 2 2 3 2 1 3 3 5 5 5 5 5 6 7 8 9 9 10 11 13 14 15 15 15 15 16 19 19 18 18 18 18 19 21 22 24 26 25 24 25 24 24 23 20 20 19 19 19 17 18 20 20 21 20 22 24 23 21 19 19 18 22 28 25 22 22 24 25 23 21 20 20 19 18 17 16 17 19 19 22 25 24 21 19 19 17
10 10 6 5 5 5 2 1 1 2 2 4 2 0 1 1 3 0 3 5 4 4 4 6 7 7 7 7 9 11 12 12 13 14 13 12 13 17 17 16 16 17 18 21 22 21 24 26 24 23 24 23 23 22 19 19 19 19 19 18 18 19 20 20 20 22 23 23 21 20 20 18 21 28 27 24 23 24 25 22 20 18 18 18 17 15 14 15 17 21 27 28 25 22 21 20 18
12 10 7 5 5 5 2 1 2 1 3 2 2 3 1 1 0 0 5 5 5 6 5 6 6 7 5 7 10 11 11 12 13 14 13 12 12 15 16 15 15 16 19 22 21 21 25 27 24 23 25 23 21 20 18 19 18 19 20 18 17 19 20 20 20 21 22 23 21 19 18 17 19 28 27 22 21 21 22 20 18 17 16 16 16 15 15 15 18 21 26 26 23 22 21 20 19
8 10 8 7 5 5 3 3 4 2 3 3 1 5 2 1 1 1 4 7 7 7 6 5 6 6 6 7 9 10 10 12 13 14 13 12 12 15 17 16 16 17 19 20 20 21 25 27 24 24 26 23 21 20 19 19 18 18 19 18 17 18 19 19 19 18 20 20 19 17 13 13 17 27 27 19 17 17 17 17 15 15 15 15 15 15 15 15 17 19 23 24 22 21 21 21 20
8 11 11 9 8 7 5 5 4 1 3 6 2 4 3 2 2 1 3 8 8 6 4 3 5 7 7 8 9 9 9 11 12 12 13 13 13 15 18 17 17 18 19 20 21 22 25 28 27 26 27 25 22 20 20 19 18 17 17 17 16 17 17 17 17 17 17 17 16 15 10 10 11 21 25 16 15 15 13 15 15 15 14 15 16 15 15 15 16 19 24 25 23 22 22 21 20
10 9 10 7 5 8 9 7 6 2 2 7 4 3 3 2 1 5 6 9 7 6 5 4 5 7 8 9 9 9 8 10 10 10 12 13 12 13 16 17 17 18 18 19 21 22 24 27 29 28 28 29 26 23 22 20 18 16 16 16 15 16 17 16 16 17 16 14 12 9 4 3 3 14 22 16 15 15 14 16 17 16 15 16 17 16 16 16 17 22 24 24 23 22 20 20 20
6 3 4 4 3 9 11 7 6 3 1 5 3 3 3 4 4 6 7 8 6 5 4 5 6 7 7 8 8 8 9 10 9 9 11 11 11 12 14 16 16 16 17 19 21 22 23 26 28 28 29 30 29 29 25 19 18 17 16 15 14 16 17 17 15 16 15 12 9 3 4 5 7 12 16 15 14 15 15 16 15 15 14 15 16 17 16 14 18 24 22 21 22 21 20 22 22
3 1 1 2 2 7 10 8 8 3 2 3 3 2 3 5 5 5 6 7 6 4 4 6 6 6 7 7 6 8 9 9 9 9 9 9 10 11 14 16 15 15 16 19 21 22 23 24 27 28 30 30 29 30 26 20 19 17 16 15 14 15 16 17 15 15 14 11 7 3 7 8 10 12 12 13 13 13 12 11 11 11 12 13 13 15 16 16 21 23 22 21 22 22 24 24 22
1 0 1 1 1 4 7 8 11 4 2 3 4 1 3 4 4 6 6 6 6 5 5 6 6 7 7 6 7 7 8 9 8 8 8 9 10 11 14 16 15 15 16 18 21 22 23 23 25 27 28 28 26 26 27 25 21 16 16 15 14 16 16 17 16 16 16 11 9 7 9 11 12 11 11 13 12 11 9 7 6 6 8 9 11 13 17 20 23 23 24 26 26 26 27 26 22
2 1 1 4 2 2 4 4 10 8 2 5 5 1 3 3 4 6 5 5 5 5 6 6 7 8 7 7 7 7 8 10 8 6 7 9 10 12 14 16 16 16 16 18 20 22 23 22 23 25 26 26 23 22 24 26 23 17 16 17 17 18 18 17 16 17 18 14 12 12 13 15 16 14 15 16 16 16 15 15 15 14 13 12 13 13 16 18 20 22 22 27 32 30 29 28 25
4 4 3 3 3 2 1 2 8 11 6 3 4 2 2 2 4 5 4 5 5 5 6 6 7 8 7 7 6 6 7 9 10 9 9 9 9 11 14 16 16 16 17 18 20 21 22 21 22 24 25 26 22 21 22 24 27 23 19 21 24 22 19 19 18 19 21 19 17 16 16 18 19 18 19 20 21 22 21 21 21 19 20 21 17 12 15 18 19 21 21 23 29 31 30 29 28
4 4 2 1 3 3 3 2 6 13 8 4 6 2 3 3 4 4 3 5 6 5 6 7 7 7 6 6 6 6 7 7 9 11 12 11 10 11 13 14 15 16 17 18 19 20 20 20 22 23 24 25 23 23 23 23 27 27 24 27 29 25 21 21 23 24 23 23 23 21 19 19 20 19 21 22 22 23 22 22 22 21 20 22 20 15 16 20 22 24 24 22 23 26 27 28 28
2 3 1 1 1 1 3 3 6 13 8 5 6 2 3 4 3 3 3 4 6 5 5 6 6 6 6 6 6 7 7 7 8 11 12 11 11 11 12 13 14 15 17 17 18 19 19 20 21 22 24 25 25 23 22 22 25 28 28 29 30 28 25 24 27 27 25 25 27 26 22 20 21 22 23 23 22 21 21 22 22 21 20 20 21 21 20 22 23 25 27 26 25 26 27 29 29
2 2 1 1 2 1 2 3 4 8 6 4 6 3 3 5 4 4 4 4 4 4 4 3 3 4 4 5 6 6 7 7 9 12 13 12 11 10 11 13 14 15 16 17 17 18 19 20 21 22 23 25 26 23 21 23 24 27 29 30 30 30 30 29 29 29 29 28 30 29 25 21 22 23 22 21 20 19 19 21 22 22 22 22 23 25 24 23 23 24 27 29 29 29 30 31 30
3 2 0 1 2 1 1 1 2 5 4 2 4 5 4 4 4 4 5 5 3 3 4 3 3 4 4 5 7 7 7 8 10 12 12 12 12 11 10 11 14 14 15 16 17 18 19 20 21 22 23 24 25 24 22 22 22 24 26 28 28 28 29 30 30 31 32 30 31 30 27 24 23 22 20 18 18 17 17 18 20 21 22 23 24 26 26 26 25 25 27 28 29 31 30 29 31
2 1 0 1 1 1 1 1 3 5 3 1 5 6 4 2 3 3 5 4 3 4 5 4 5 5 4 5 7 8 7 8 9 11 11 11 13 12 10 10 13 14 15 16 17 17 18 18 19 20 21 22 23 23 22 21 20 19 20 22 23 25 26 28 29 30 31 30 31 30 28 27 25 23 21 19 18 17 18 18 18 19 20 21 23 24 26 27 26 25 27 27 28 31 30 28 25
2 2 1 0 2 3 3 1 3 5 2 2 6 5 4 2 3 3 3 3 3 3 4 5 5 6 5 5 7 8 8 8 9 11 12 12 13 12 11 10 11 13 14 16 16 17 17 17 18 19 19 20 21 21 21 20 19 18 17 18 19 21 23 24 26 26 27 28 29 29 28 28 27 26 23 21 20 18 19 19 20 19 18 20 22 23 24 24 25 24 25 27 28 27 26 21 13
3 3 1 0 2 3 1 2 4 6 2 4 6 4 4 3 3 4 2 3 4 3 4 5 5 5 6 6 6 6 7 8 8 10 11 12 13 12 11 10 9 10 13 14 15 16 16 16 16 17 17 18 18 19 19 19 18 18 18 18 18 20 20 22 24 25 26 26 26 27 27 27 26 26 25 23 21 18 19 20 21 20 19 19 20 21 22 22 22 22 22 26 27 24 18 10 9
2 2 2 1 2 4 3 2 6 4 2 3 5 4 4 4 4 4 3 3 4 3 4 4 4 4 5 6 5 4 5 6 7 9 10 11 12 12 11 10 9 9 11 13 14 15 15 15 15 15 16 16 17 17 18 18 18 19 19 20 21 22 23 24 25 26 26 26 26 25 24 24 25 25 25 23 20 18 20 21 21 21 20 19 18 18 19 18 18 19 20 22 23 22 18 12 16
2 1 1 2 3 4 5 5 5 3 3 2 4 3 2 4 5 5 2 3 4 1 2 3 2 3 4 4 4 4 5 5 6 7 8 10 11 12 11 10 9 9 9 10 12 13 13 13 13 14 14 15 15 16 16 17 17 19 20 21 21 20 20 22 23 23 24 25 25 24 23 23 23 23 22 20 19 19 21 22 21 21 20 19 19 18 17 16 15 16 16 17 17 19 19 19 21
0 1 1 2 4 4 3 3 3 2 1 2 3 4 2 3 6 5 3 4 5 2 3 3 3 4 4 5 5 6 6 6 7 7 8 9 9 11 11 10 10 9 7 8 9 11 11 11 11 12 13 13 13 14 15 16 16 17 18 18 18 17 15 17 18 19 21 22 22 23 23 23 23 23 22 21 21 21 22 22 21 20 20 19 18 18 17 15 14 14 13 14 15 16 18 21 21
1 2 2 4 3 3 1 1 1 2 3 2 1 2 3 2 3 4 1 5 6 4 3 2 2 4 5 6 6 7 7 6 6 7 8 9 9 10 10 11 10 8 7 6 7 8 9 10 10 10 11 11 12 13 13 14 14 14 15 15 15 15 15 15 16 17 18 19 20 22 22 23 23 23 23 23 23 23 23 23 22 21 20 19 18 17 17 15 13 12 12 13 16 16 17 21 20
2 2 2 2 0 1 0 1 0 1 2 2 2 3 4 2 2 3 1 4 5 4 2 2 2 4 6 7 7 8 8 6 6 6 8 9 9 9 10 10 10 8 7 6 6 7 7 8 9 8 8 9 10 10 11 12 12 12 13 13 11 12 12 13 14 14 15 16 18 19 19 20 20 21 21 22 22 23 23 22 22 22 21 20 20 19 17 16 14 13 13 13 15 17 18 19 17
2 2 1 2 2 1 0 2 0 0 3 1 3 5 4 2 1 3 2 3 4 4 3 3 2 4 5 6 7 7 7 7 7 8 8 8 9 10 10 10 10 8 7 6 6 6 6 7 8 8 7 7 7 8 9 9 10 10 10 10 10 9 10 10 11 12 12 13 14 15 16 17 17 18 18 18 19 19 20 20 20 20 21 21 20 20 19 18 17 15 14 14 14 15 15 15 14
1 2 2 2 2 1 1 1 1 2 2 2 3 5 4 3 1 2 1 0 2 4 4 4 4 4 5 5 6 7 7 7 8 10 10 10 9 9 10 10 9 8 6 6 6 6 6 6 7 7 7 6 6 6 7 7 8 8 7 8 8 8 8 8 7 8 10 10 11 12 12 13 14 14 15 15 16 16 16 17 17 18 18 18 18 18 18 18 18 17 16 15 14 14 14 13 13
2 2 2 2 2 2 2 1 1 3 1 3 2 3 2 3 0 2 1 1 2 4 5 5 5 5 5 5 6 7 7 7 7 8 10 11 11 10 10 10 9 8 7 6 6 6 7 7 7 7 6 6 6 5 5 5 6 6 6 6 6 6 7 7 6 6 7 8 8 9 9 10 10 11 11 12 13 13 14 14 14 15 15 16 16 16 15 15 15 15 15 15 14 14 13 13 13
2 1 2 2 1 0 1 0 1 3 2 3 2 3 2 5 2 1 2 3 4 5 5 6 6 7 7 6 7 7 7 7 6 7 8 10 10 10 10 11 10 9 7 6 5 5 6 7 8 8 7 6 7 6 4 3 3 4 4 5 4 4 5 5 6 5 5 5 5 6 6 6 7 8 8 9 10 10 11 11 11 12 13 13 13 13 13 13 12 13 13 13 13 13 12 12 12
5 3 3 3 2 3 3 2 2 3 1 3 2 2 3 4 2 2 2 1 1 3 5 6 7 8 9 8 8 8 8 7 6 5 7 8 9 10 11 12 12 10 8 6 5 5 5 6 6 8 7 7 8 8 6 5 3 2 2 2 3 3 3 3 4 4 5 4 4 4 3 3 4 5 6 6 7 7 8 8 9 10 10 10 10 10 10 10 9 10 11 11 12 12 11 11 12
3 1 3 3 3 3 3 2 3 4 4 1 1 1 3 2 2 1 1 2 2 4 4 4 6 7 7 8 8 8 8 7 5 5 7 8 9 10 12 13 13 12 10 7 6 5 5 5 6 6 7 7 8 9 8 7 6 5 4 2 2 2 2 2 2 2 3 3 3 3 2 2 2 2 3 4 5 5 6 6 7 7 8 8 8 8 8 7 7 8 8 9 9 10 9 10 11
0 1 2 2 3 2 2 1 2 2 4 3 1 2 3 1 1 1 2 3 4 4 4 4 7 6 4 6 8 7 7 6 5 5 7 9 10 10 12 15 16 14 12 9 8 6 6 6 6 6 6 6 7 9 9 9 9 8 7 5 4 4 3 3 3 2 2 2 2 2 2 2 1 1 1 2 2 3 4 4 5 5 6 6 6 7 7 7 6 7 7 8 8 8 8 9 9
1 1 2 3 2 2 0 1 1 1 2 2 1 3 3 2 0 1 1 3 4 4 4 5 7 6 5 7 7 6 5 6 6 6 7 9 11 11 14 17 18 16 14 12 10 9 7 6 6 5 5 5 6 7 8 10 11 10 9 8 8 7 6 5 5 4 4 4 4 3 3 3 2 3 3 2 2 1 1 2 2 2 3 4 4 5 5 5 6 6 7 8 8 8 8 9 9
2 2 3 2 0 0 0 1 1 1 3 2 1 4 5 3 1 1 1 2 3 3 4 5 6 6 6 6 6 6 6 7 7 8 9 9 10 12 16 19 20 18 16 15 13 11 10 8 7 6 6 5 5 6 7 8 10 12 12 11 10 9 9 8 8 7 7 6 6 6 6 5 4 4 4 4 4 3 3 2 2 1 1 1 1 2 2 3 3 4 4 5 6 7 8 8 9
4 4 3 1 1 0 0 1 2 2 4 4 2 3 4 3 2 1 2 3 1 1 2 3 4 5 5 6 6 6 7 7 7 8 9 10 11 13 17 20 21 20 18 17 15 13 12 10 10 9 7 6 6 6 6 7 9 11 12 13 13 12 12 11 11 10 10 9 9 9 9 8 8 7 7 6 6 6 5 5 4 4 3 3 2 2 1 1 1 2 2 3 4 5 6 7 7
3 2 2 1 1 2 2 1 1 2 3 4 4 3 2 3 2 1 3 4 3 2 2 3 4 5 5 5 5 6 7 7 7 7 8 11 13 15 19 21 20 20 20 19 17 15 14 13 12 12 10 9 8 7 7 7 7 9 10 12 14 14 14 14 13 13 13 13 12 11 11 11 10 10 10 10 9 8 8 8 7 7 6 6 5 5 5 4 4 4 4 5 5 5 6 6 7
0 0 1 1 1 0 1 0 0 2 3 2 3 5 4 0 2 3 3 3 2 1 2 4 4 5 5 5 5 6 7 8 8 8 9 11 13 17 21 21 19 20 20 19 18 16 15 15 14 13 13 13 12 10 9 8 8 8 9 10 12 13 15 16 16 16 16 16 15 15 14 14 13 13 13 13 12 12 11 11 10 10 9 9 9 8 8 8 8 8 8 8 8 8 8 8 9
2 1 1 1 1 1 1 1 1 1 2 1 1 6 7 2 1 3 1 1 1 2 3 4 6 7 7 6 7 6 7 8 8 9 10 12 12 15 20 22 20 19 19 19 19 17 17 16 16 15 14 15 14 13 12 11 11 10 10 10 10 11 13 16 17 18 19 19 19 18 17 17 17 16 16 16 15 15 15 14 14 14 13 13 13 12 12 11 12 12 12 12 11 11 11 11 12
Wind_Direction
287 157 110 90 105 187 61 350 133 57 77 82 61 83 48 15 344 356 21 31 66 17 352 328 6 20 54 90 93 77 49 50 48 336 293 329 327 328 334 332 334 335 339 340 336 342 349 352 354 349 342 339 338 336 333 337 346 338 265 236 251 245 240 241 248 247 236 225 216 218 217 218 220 223 227 220 214 214 203 187 177 174 168 164 158 158 160 154 152 151 149 146 143 137 133 132 129
302 148 106 87 79 184 128 324 236 106 114 94 59 45 21 348 11 20 17 13 351 336 328 308 67 64 84 110 109 88 58 65 54 352 279 312 325 331 335 335 336 337 338 339 341 343 347 351 353 348 343 340 339 339 336 331 335 342 315 257 259 259 254 246 243 244 240 230 220 219 217 216 222 230 233 222 215 216 206 193 187 183 173 170 169 166 162 156 153 154 152 149 148 144 139 136 134
39 159 125 87 64 31 94 347 4 120 120 99 75 48 5 355 18 10 359 4 352 332 327 274 105 44 82 123 63 53 76 81 30 358 299 322 332 330 333 337 340 340 338 339 345 346 346 350 353 347 343 342 340 340 337 332 328 331 331 287 272 268 265 253 243 242 239 233 227 225 218 215 220 226 224 214 209 211 208 202 194 190 181 170 173 171 164 160 154 154 153 151 151 147 142 138 137
54 172 188 204 75 44 49 45 26 59 98 100 100 68 19 12 359 351 354 6 4 353 4 242 121 17 13 71 42 65 57 348 8 358 327 332 332 327 329 337 343 342 339 340 345 347 347 349 352 347 343 343 340 341 337 332 329 323 328 329 299 277 272 262 248 244 240 235 230 227 223 216 212 214 213 210 209 207 210 210 198 193 189 174 176 176 171 169 162 161 156 153 153 149 146 141 141
65 81 136 256 82 57 62 80 35 53 78 62 99 80 24 11 351 348 356 18 19 10 18 344 93 60 54 48 14 63 11 313 347 356 336 330 330 327 330 336 341 337 337 341 343 346 348 349 351 348 345 344 341 341 338 334 332 324 316 321 315 296 288 273 257 248 243 239 232 226 223 219 212 212 210 209 214 210 210 212 202 196 196 183 181 184 181 179 175 168 155 153 155 152 150 148 149
67 70 70 74 82 354 106 94 71 73 54 12 73 73 20 12 355 345 345 27 26 19 26 13 28 85 94 59 39 79 31 349 334 347 335 327 329 332 338 339 336 334 338 344 344 345 346 349 351 350 349 347 344 340 338 334 328 323 318 315 307 299 301 288 270 260 252 245 239 230 224 224 219 217 212 208 216 216 216 215 205 200 199 190 185 189 189 187 183 172 155 153 157 157 155 156 158
47 61 60 75 85 22 77 84 77 81 47 19 48 46 19 12 353 350 356 355 28 25 22 22 9 142 91 91 77 103 79 21 340 335 332 325 331 339 347 344 339 339 345 349 348 346 346 348 349 350 350 348 347 342 336 331 325 319 316 317 309 296 297 300 288 272 260 251 243 236 227 227 225 219 216 214 217 219 221 219 208 203 201 194 190 192 195 193 186 179 166 159 159 161 161 166 169
52 53 359 71 78 50 72 81 67 73 64 50 51 39 20 7 348 3 21 18 35 17 4 17 348 267 88 196 80 119 165 9 348 334 336 332 339 347 350 345 343 346 351 352 351 350 347 346 347 349 349 347 346 345 338 329 326 320 311 310 313 304 291 291 299 286 263 251 244 239 228 224 223 219 219 219 218 220 223 221 212 206 204 199 195 195 197 198 188 185 181 172 168 170 172 176 182
50 41 176 76 83 84 79 89 77 77 80 70 60 46 18 4 353 10 34 43 27 2 7 5 342 330 104 97 70 103 219 354 348 341 344 344 349 353 352 347 345 348 353 354 354 355 351 348 346 347 348 346 344 344 342 331 324 321 314 304 308 310 292 278 288 304 275 254 247 246 237 227 222 218 219 220 220 222 225 225 218 211 207 201 198 197 201 204 192 188 190 187 183 180 179 182 192
44 20 104 92 96 107 90 98 95 88 79 69 52 35 13 5 7 19 36 47 22 8 16 353 3 39 67 74 77 63 360 348 346 346 347 351 357 356 356 355 353 352 354 357 358 357 353 352 349 348 346 346 345 343 341 335 326 320 316 307 304 305 297 283 276 291 289 260 252 254 246 233 223 217 216 217 221 226 229 226 222 216 209 203 203 202 203 208 200 194 196 195 192 187 185 186 194
70 26 77 101 89 102 99 106 102 98 80 78 59 37 12 360 7 30 38 49 29 34 24 351 25 42 40 69 86 64 355 351 350 346 346 354 359 358 0 359 358 359 357 359 0 358 356 354 351 350 347 345 345 344 342 337 331 325 319 313 307 300 294 289 275 268 278 263 254 257 247 233 225 220 218 215 218 228 232 226 220 217 213 209 208 208 206 210 209 201 197 197 192 187 189 190 195
90 68 82 89 70 87 106 112 107 111 89 77 62 37 4 356 24 35 36 44 24 41 30 8 9 344 6 35 58 38 349 355 352 342 348 356 358 2 7 4 4 5 1 2 1 358 357 355 352 351 348 345 343 343 344 341 336 331 325 317 308 301 292 286 274 262 263 258 250 251 246 237 231 225 221 219 217 222 230 229 221 217 217 214 211 211 208 208 209 205 196 197 193 184 182 188 197
75 82 89 82 59 98 107 110 113 127 93 61 44 16 347 4 38 28 25 43 27 37 29 8 348 293 5 7 354 13 352 354 345 341 350 356 359 4 9 10 12 9 5 4 0 358 357 355 353 351 350 346 343 340 341 342 341 336 331 324 311 297 289 285 276 263 256 253 248 245 244 238 233 232 229 226 221 221 227 229 226 220 219 218 214 212 210 208 208 206 198 196 194 189 178 182 199
54 55 77 95 90 98 95 105 125 138 87 51 26 352 350 29 27 9 7 44 40 27 17 6 335 275 7 358 358 8 348 347 339 340 351 358 4 5 8 9 10 8 7 6 1 358 357 356 354 351 351 348 345 341 339 339 340 340 335 328 319 302 291 285 278 269 254 248 246 243 243 237 235 237 234 230 225 224 228 229 229 225 223 224 220 216 213 212 211 208 201 198 197 195 185 184 201
46 101 76 104 112 95 69 75 108 103 84 47 26 338 4 61 345 2 22 32 53 16 337 21 354 305 1 348 349 348 336 337 335 342 353 360 3 3 4 3 2 2 5 5 1 359 357 357 356 353 351 349 346 342 339 336 336 340 340 332 325 316 302 288 277 272 259 247 242 240 239 235 235 236 231 229 226 224 229 232 231 227 226 227 226 220 216 214 214 211 205 201 198 195 192 193 200
26 122 85 100 101 98 78 59 92 93 89 48 35 309 177 84 336 38 27 339 67 28 345 40 20 16 12 339 335 330 325 330 334 345 352 354 357 358 358 357 358 358 2 2 358 356 356 356 354 353 351 348 346 341 339 338 334 336 340 337 329 324 312 296 281 271 261 250 241 235 233 232 232 234 232 228 226 224 227 232 233 230 228 229 231 226 221 218 216 214 208 202 198 194 194 196 194
306 62 80 91 81 89 80 51 68 93 105 90 61 331 109 97 66 82 235 283 37 46 28 44 46 48 7 340 326 318 321 330 337 346 351 354 357 358 358 359 359 359 0 0 357 355 354 353 351 351 349 347 346 340 336 339 337 333 337 338 333 329 319 306 293 278 263 253 244 235 230 228 227 232 234 231 228 226 227 232 233 234 232 231 234 232 226 221 218 217 211 203 197 194 194 190 190
359 56 77 87 75 77 61 65 78 101 114 100 71 354 14 79 55 49 214 261 37 78 57 43 159 112 3 341 324 321 326 332 341 350 356 2 2 0 360 358 357 357 357 357 358 357 354 350 348 347 347 344 343 340 336 337 336 330 334 337 334 332 325 316 303 291 274 256 247 236 229 226 223 223 225 229 232 229 229 232 232 235 236 234 235 235 234 228 218 216 213 201 193 197 195 185 184
42 68 83 80 79 87 66 73 86 94 95 100 97 343 4 46 7 342 332 37 29 32 42 21 18 17 3 352 336 332 332 335 346 355 1 5 3 360 357 354 354 354 354 353 354 358 357 351 347 346 345 342 340 341 337 335 335 330 331 334 334 332 328 322 311 299 289 268 250 238 230 228 225 221 217 218 230 235 231 230 230 235 239 239 238 236 239 237 222 215 214 201 195 200 195 182 181
31 52 85 88 100 101 85 72 71 45 56 88 89 155 22 41 336 330 337 9 29 29 25 3 3 360 352 351 343 335 334 344 355 0 4 4 3 360 355 352 350 348 348 347 347 354 358 354 350 347 345 342 340 340 337 335 334 331 330 331 332 331 328 325 317 305 298 284 261 242 235 235 232 230 225 221 229 240 237 233 231 236 240 239 239 236 236 240 229 216 212 203 198 200 191 181 176
40 38 89 114 129 105 91 59 57 12 336 8 48 186 68 33 333 346 335 336 37 29 19 352 347 344 342 345 342 338 342 354 359 2 3 1 1 358 354 351 347 345 343 344 346 350 354 355 352 347 345 342 341 339 336 335 334 333 330 330 331 329 327 325 321 312 304 295 277 253 242 241 236 232 230 228 230 232 234 235 232 235 239 237 240 237 233 237 234 219 208 205 202 198 189 179 171
72 49 81 113 131 102 107 341 40 339 299 342 15 38 25 7 14 11 348 7 31 11 1 341 331 334 334 333 331 337 350 356 357 359 359 357 357 354 351 348 347 346 345 346 345 347 350 352 352 348 344 342 342 340 336 335 335 334 332 331 331 328 326 325 323 318 310 303 292 269 251 243 235 227 225 227 227 223 227 232 229 230 235 237 241 240 236 239 239 224 207 205 201 193 187 178 170
100 77 76 86 63 90 105 306 71 274 320 17 14 23 328 309 82 22 345 18 12 347 341 322 317 321 318 315 321 339 350 353 352 354 354 353 352 349 347 346 346 344 344 345 344 346 348 350 350 347 345 344 342 339 338 338 337 335 333 332 331 328 327 325 324 322 317 310 301 282 263 249 236 226 220 220 219 221 227 231 227 227 231 233 239 243 242 242 242 230 212 206 198 188 185 179 172
96 102 96 75 60 73 55 340 91 258 18 23 319 97 282 36 85 347 9 23 350 333 313 297 304 301 295 311 333 345 345 345 347 349 351 349 346 345 343 342 344 343 343 346 347 346 349 351 350 347 348 348 344 341 342 341 338 336 333 331 330 329 328 326 326 326 323 316 307 290 271 260 240 225 219 218 218 220 225 229 228 228 231 231 235 242 245 242 241 228 211 204 196 187 182 177 175
82 106 114 95 73 67 56 45 86 110 55 10 231 125 100 40 305 318 30 8 333 320 293 279 292 293 299 331 344 346 342 344 346 346 348 345 342 343 345 344 345 346 344 346 346 346 352 354 350 349 352 351 347 345 343 343 340 336 334 332 330 331 330 328 328 329 328 320 309 297 276 262 243 221 214 216 217 221 224 227 229 230 235 233 232 238 248 247 239 225 208 200 192 186 181 178 178
87 112 113 102 88 64 54 81 74 60 37 343 165 113 104 139 247 125 45 357 338 309 283 270 289 316 338 343 345 344 341 345 347 344 344 344 344 345 347 349 349 348 344 345 347 347 354 356 352 353 355 353 350 348 346 343 340 337 335 332 331 333 333 331 332 332 332 324 310 302 276 254 244 217 207 209 215 224 226 225 230 234 238 237 235 238 245 245 233 216 200 197 193 185 182 181 180
116 119 110 93 89 64 46 72 55 11 39 359 23 118 110 174 243 48 25 350 344 309 299 294 306 342 351 345 345 344 343 346 346 340 344 350 352 349 346 348 347 346 345 346 350 352 354 359 1 1 1 359 355 350 347 343 340 338 336 334 334 336 336 336 338 338 335 326 312 307 277 250 248 210 197 198 215 227 225 222 227 230 238 243 244 241 237 238 226 202 191 192 191 184 184 184 180
122 127 112 95 99 66 40 46 29 328 77 6 348 150 133 161 302 9 347 336 336 310 329 344 344 353 348 347 344 344 348 347 345 343 350 352 349 345 342 344 343 343 345 345 350 354 355 1 6 7 7 6 4 357 349 346 343 338 336 336 336 338 342 343 343 347 344 333 318 312 290 245 222 190 187 190 214 228 229 227 228 228 235 241 244 240 232 234 219 196 189 187 183 181 178 174 174
129 166 110 118 142 65 33 21 8 330 86 13 327 200 106 67 19 360 340 332 320 300 337 358 358 353 344 348 342 345 350 345 347 351 352 346 342 339 337 343 342 341 344 346 352 356 358 2 6 8 10 11 12 6 357 350 342 339 338 337 340 343 348 351 350 356 355 345 333 345 62 77 116 150 172 188 215 228 229 227 228 229 229 230 236 237 227 218 203 189 185 183 179 176 162 152 156
145 269 57 153 159 59 31 9 352 332 136 9 304 216 60 52 26 7 354 338 324 321 1 1 355 348 342 344 338 343 348 348 349 350 348 341 342 337 338 345 345 344 345 349 355 0 3 4 5 9 10 13 17 13 10 2 347 343 343 341 346 351 356 356 355 4 6 3 8 62 65 73 120 134 153 181 203 211 216 219 224 227 224 216 212 223 215 193 188 187 184 175 162 158 148 142 146
126 290 325 5 62 60 47 19 2 14 140 332 305 255 62 58 29 17 3 343 333 344 358 353 350 344 341 340 340 343 345 345 339 340 345 344 346 341 341 347 349 350 349 352 359 5 10 9 9 9 8 13 19 19 20 15 359 349 352 353 357 4 10 4 1 19 22 21 41 66 61 77 118 130 143 165 176 172 166 165 168 175 193 188 165 179 185 171 167 166 169 164 148 140 134 131 140
18 309 59 22 21 68 71 46 20 16 312 308 306 292 88 70 26 17 4 350 332 336 350 349 346 341 340 341 343 341 341 342 335 342 356 350 351 348 346 350 353 355 356 359 3 10 16 16 14 10 7 12 20 25 26 22 14 6 1 7 17 20 20 12 11 32 37 35 51 63 63 83 108 117 123 137 142 136 127 121 120 115 107 105 113 135 150 148 146 139 139 146 140 133 127 123 126
28 24 60 17 358 23 41 108 35 2 321 318 340 1 91 39 17 18 9 360 336 331 345 343 342 339 340 340 338 336 337 342 342 350 359 353 350 349 349 353 356 358 1 6 7 12 18 19 17 13 11 14 19 27 29 27 26 22 13 21 33 33 25 19 22 40 49 49 54 59 67 84 98 104 110 118 124 124 121 117 113 107 97 93 97 107 121 128 136 132 121 124 127 124 121 118 115
28 26 70 54 358 350 349 69 24 356 347 14 4 30 69 8 1 9 16 3 338 330 339 337 337 335 337 336 332 336 334 338 344 346 350 349 348 351 352 355 357 360 5 9 10 14 17 18 18 16 16 18 22 29 29 28 31 30 26 31 39 36 26 27 33 43 53 56 58 58 63 81 88 94 103 106 110 114 115 114 110 110 107 104 103 104 117 125 128 129 124 120 119 119 120 119 117
13 5 28 83 5 6 2 8 9 354 350 10 11 50 42 4 360 6 17 1 334 326 333 325 324 328 333 333 330 336 334 339 346 340 340 344 348 352 353 356 358 2 7 10 12 15 16 17 21 21 20 22 25 28 26 26 30 32 32 35 41 37 31 36 40 43 50 57 63 61 60 74 81 85 97 102 105 109 111 113 112 113 114 111 111 115 125 129 125 126 129 127 124 124 127 127 126
80 24 4 5 323 74 4 344 15 352 335 8 13 350 330 335 348 355 351 346 326 320 331 315 318 330 331 334 331 332 334 342 343 337 340 347 351 354 354 356 359 3 6 9 13 16 17 19 23 24 23 25 26 24 22 23 24 26 29 31 35 36 37 40 43 46 50 57 66 67 64 68 73 79 88 95 99 106 110 114 116 118 119 118 120 125 128 130 130 131 130 130 128 124 123 125 127
105 116 85 309 296 71 58 313 17 339 313 47 7 318 292 308 329 339 334 328 320 338 347 341 344 342 335 335 329 331 337 336 333 336 343 347 350 354 354 356 358 1 3 5 11 16 20 22 23 23 25 26 27 25 21 22 21 20 24 26 27 31 37 41 44 48 51 55 63 69 72 71 73 80 85 87 91 99 107 113 116 119 123 124 126 128 130 132 135 136 133 131 131 128 122 121 124
100 113 154 261 297 346 325 298 345 335 303 75 7 316 267 288 310 314 321 311 330 354 339 332 337 330 331 330 326 331 333 330 334 343 347 343 345 350 352 356 356 356 358 2 8 13 19 24 24 24 26 28 30 28 23 23 24 22 23 26 28 31 36 40 42 47 51 55 60 65 71 73 76 81 83 86 89 93 101 108 111 115 119 123 127 129 129 131 134 137 137 132 131 129 127 126 125
48 76 206 233 357 310 277 233 349 342 314 353 353 308 254 259 280 282 301 296 315 332 304 303 310 311 325 330 327 327 324 328 336 343 345 340 340 344 348 351 351 352 354 358 3 9 16 20 23 26 26 28 30 32 29 26 28 31 31 33 36 39 40 42 45 50 56 58 60 63 65 69 74 79 81 82 83 85 92 100 103 105 111 117 123 127 128 132 134 137 140 137 132 128 130 134 134
39 36 287 317 5 317 239 118 352 346 357 333 323 278 247 236 234 242 248 267 282 290 282 272 264 280 306 311 304 302 313 327 329 332 339 339 339 340 342 341 340 348 350 352 357 4 11 15 21 26 25 26 29 33 36 33 32 36 42 44 46 48 49 51 54 58 62 62 62 65 66 69 72 76 79 80 81 84 89 94 97 101 107 114 120 125 129 133 137 140 142 141 137 132 132 133 136
85 15 331 330 339 307 276 319 326 311 169 325 310 254 224 206 210 222 199 231 252 264 288 264 237 252 272 284 285 280 298 315 318 322 329 333 334 333 338 340 335 340 344 346 350 356 5 9 15 24 25 24 26 32 36 37 36 37 42 45 47 48 46 48 50 52 56 58 60 63 66 70 74 76 80 83 87 91 92 92 94 99 105 111 116 121 127 132 138 143 145 144 144 144 141 132 137
151 220 277 293 311 287 275 300 309 260 173 25 337 287 195 169 206 227 197 244 248 229 299 289 311 297 283 305 326 328 317 313 310 310 316 323 329 330 337 346 338 332 334 339 345 349 358 5 10 19 24 23 23 28 35 36 36 36 38 37 37 37 34 37 41 42 47 53 58 62 64 69 75 78 82 87 90 91 92 92 95 99 104 110 115 121 127 134 141 146 151 153 154 154 147 138 145
189 134 207 269 292 269 273 309 295 291 320 7 344 322 328 175 205 209 199 266 261 252 278 284 331 330 329 337 341 342 334 330 324 315 319 323 329 335 338 344 340 329 322 330 341 345 350 358 6 14 20 22 21 24 31 35 35 36 39 37 33 31 29 33 42 47 52 56 61 65 67 69 72 76 79 81 84 84 86 89 92 96 100 104 110 117 124 132 142 149 159 163 160 158 150 144 151
7 81 269 267 276 246 246 330 297 357 316 271 10 340 288 250 191 173 217 282 266 258 262 254 330 339 342 339 334 336 333 332 325 318 324 329 331 334 334 338 341 333 317 319 335 341 345 351 360 10 15 19 21 21 25 31 33 34 38 41 37 33 31 34 43 52 57 61 64 66 68 70 71 73 75 76 78 79 80 83 86 90 93 97 100 104 110 117 128 140 153 161 160 156 151 148 152
38 63 297 277 6 123 144 290 159 49 286 232 54 344 279 275 132 151 237 281 274 284 292 273 322 341 336 331 327 330 332 328 320 315 317 322 325 326 328 339 350 348 327 313 322 331 338 344 351 2 8 13 20 23 23 26 32 35 36 39 40 38 37 36 40 47 53 59 63 65 68 70 71 73 74 76 77 78 80 82 85 88 89 91 93 94 98 104 113 126 140 152 157 156 154 153 153
45 115 120 125 121 106 142 297 76 133 267 213 27 346 321 309 161 169 212 265 283 308 312 278 290 314 313 317 320 326 332 330 327 323 316 317 323 327 336 349 3 3 341 320 313 316 327 335 340 347 352 2 15 23 24 24 29 35 36 37 39 43 46 45 41 44 50 56 60 64 67 69 71 73 74 76 78 81 83 85 87 88 89 90 92 93 94 97 102 109 120 132 143 147 147 147 143
121 186 216 176 176 154 177 300 358 243 250 123 60 9 350 316 182 169 216 250 297 302 295 271 252 274 304 321 327 331 333 330 327 323 322 324 327 334 342 348 2 11 1 338 320 312 314 317 323 331 333 341 357 15 22 22 25 31 36 37 37 38 46 52 50 49 52 54 57 60 63 66 69 71 74 75 78 80 83 86 88 88 90 91 92 95 96 98 100 103 108 114 121 126 128 128 125
205 218 243 216 192 193 197 181 170 263 301 104 83 12 321 263 225 140 208 185 237 268 280 283 269 276 308 326 331 334 330 324 319 318 323 327 329 334 338 342 355 10 12 359 339 324 316 309 308 313 318 322 331 348 7 16 21 23 27 32 35 33 34 41 48 58 63 60 59 59 59 62 64 66 70 71 72 76 78 81 84 86 88 90 91 93 95 98 101 104 107 110 113 116 120 123 124
290 274 271 281 256 225 252 196 210 272 350 105 100 1 275 245 260 141 189 218 238 253 265 279 285 285 295 310 323 329 326 318 314 314 317 318 322 326 328 334 342 353 2 3 357 345 331 320 308 302 302 302 308 319 326 342 4 14 19 21 25 30 28 27 28 36 51 60 66 69 64 62 66 68 70 71 69 71 75 77 79 82 83 84 86 88 91 95 100 104 108 111 113 116 120 122 124
355 351 324 337 11 5 340 334 296 288 356 113 121 342 280 259 265 167 177 210 272 282 273 276 285 286 291 301 308 310 310 308 304 304 305 306 313 318 320 325 329 334 341 347 353 352 344 338 322 310 304 290 288 297 301 301 306 318 350 2 360 11 17 18 17 14 21 32 41 56 63 65 74 78 79 80 78 76 78 79 80 82 83 84 84 86 88 90 96 103 106 110 112 115 117 120 120
357 318 311 2 40 354 331 327 312 309 319 307 151 254 275 302 30 96 71 13 324 290 276 277 277 276 285 293 293 293 297 302 306 302 302 304 309 314 318 322 325 324 325 328 332 338 339 339 335 326 317 297 279 278 282 286 286 282 281 281 289 306 317 328 329 334 355 7 9 16 26 38 56 71 76 82 84 84 83 84 88 90 91 93 94 95 96 96 100 104 107 110 111 113 115 116 117
44 229 283 20 32 331 334 15 350 330 310 287 217 240 263 284 47 57 331 306 293 278 259 262 269 269 278 284 284 285 291 305 318 315 309 311 312 313 317 322 324 320 316 316 314 314 320 325 329 329 328 315 290 277 272 271 273 275 275 270 267 267 266 272 275 274 283 294 311 325 323 330 336 336 4 43 62 73 78 80 86 93 98 102 105 108 110 112 117 119 122 125 123 124 127 126 126
298 314 13 58 357 302 103 70 95 181 271 279 278 282 282 287 196 91 313 284 277 265 254 254 263 272 278 280 284 287 297 311 316 311 303 305 309 312 318 321 322 320 314 310 306 301 299 303 311 317 322 322 309 292 277 266 264 265 267 266 265 265 264 262 262 260 258 260 262 264 271 279 286 291 298 308 327 351 25 46 59 73 84 94 100 104 109 117 123 129 135 137 137 140 142 141 142
310 17 79 112 216 296 226 302 286 259 281 290 320 295 300 313 339 126 187 253 264 246 246 256 263 272 273 277 287 293 300 308 310 308 305 303 304 310 317 320 320 319 313 306 303 298 289 287 293 300 305 309 311 307 295 278 266 262 261 261 262 262 262 261 259 259 257 255 255 255 255 258 260 263 270 277 281 284 288 293 296 310 349 34 69 76 92 111 123 136 142 145 147 148 151 155 156
23 77 115 182 298 6 308 314 334 327 306 293 293 299 281 245 203 137 174 201 247 238 234 263 272 276 278 281 291 297 303 307 308 309 308 307 306 308 314 317 317 317 313 307 302 298 292 284 281 286 291 295 296 299 301 294 280 269 262 258 258 258 258 258 258 257 256 255 254 254 253 251 250 251 254 258 259 263 265 266 267 271 275 278 281 285 272 247 220 194 182 185 179 168 170 174 173
49 120 140 351 349 338 348 7 314 294 303 307 317 326 279 210 189 192 193 197 208 225 252 276 282 282 281 283 288 296 304 305 304 303 301 302 302 306 311 314 314 313 311 308 304 299 294 288 282 280 281 285 287 287 292 295 289 282 272 262 258 257 257 256 256 256 256 256 254 253 253 252 252 251 250 249 249 251 252 254 255 256 258 260 261 261 261 259 254 245 234 233 229 217 206 205 205
337 201 64 64 95 317 299 109 356 310 301 303 311 301 294 133 161 212 207 199 203 232 280 284 285 285 283 282 283 290 298 298 298 297 296 297 298 302 309 313 313 309 307 307 307 301 294 290 287 282 278 280 283 281 282 285 286 286 282 275 267 261 258 256 256 255 255 256 255 253 252 252 252 251 250 249 249 249 250 250 250 250 249 249 249 249 250 250 250 250 247 244 243 238 230 225 227
311 307 26 34 3 313 295 358 45 359 297 272 309 294 293 352 45 266 293 5 311 313 301 285 285 288 289 286 281 284 290 291 293 293 293 295 295 298 305 310 311 308 304 303 304 303 298 293 290 287 282 281 283 283 280 278 279 281 283 282 277 269 263 259 257 256 256 257 257 255 254 253 251 251 251 251 250 250 251 250 250 250 249 247 246 244 244 243 243 245 246 247 246 243 239 235 235
Height
807 807 807 807 807 807 809 810 823 833 838 859 869 869 874 874 873 872 872 873 875 877 878 877 875 871 869 874 880 882 881 883 888 881 876 882 880 878 877 872 869 865 862 859 858 855 851 850 847 846 845 843 841 840 838 837 837 836 836 836 835 835 835 836 835 835 835 834 834 834 835 835 835 835 834 834 834 835 834 834 833 834 834 833 832 832 833 833 833 834 835 835 834 833 832 832 833
807 808 807 807 807 808 814 814 827 839 842 863 874 874 877 873 872 875 876 878 880 879 877 876 874 875 875 877 878 879 885 886 889 889 886 884 880 879 876 872 869 865 862 859 857 855 852 850 847 845 844 843 841 840 838 837 836 835 835 835 835 835 834 834 835 835 834 834 834 833 833 833 834 834 833 833 834 834 834 834 834 833 834 833 832 832 832 832 832 833 834 834 835 834 833 832 832
807 808 807 807 808 810 815 818 831 840 843 864 877 879 878 876 876 877 877 877 880 879 878 876 873 876 876 877 878 879 886 888 887 888 886 883 880 877 875 872 869 865 862 859 857 855 852 850 847 845 843 842 841 839 838 836 836 835 834 834 834 833 833 833 833 833 833 833 833 832 832 832 833 833 833 833 833 833 833 834 834 834 833 833 833 832 832 831 832 832 832 833 834 834 833 832 832
808 808 808 807 809 815 823 834 843 842 850 865 875 881 881 881 880 877 878 877 879 877 877 876 875 878 876 879 881 881 886 887 887 888 885 884 882 878 875 872 868 866 863 860 857 855 853 850 848 845 844 842 840 839 838 836 835 834 833 834 833 833 832 832 831 831 832 832 831 831 832 831 831 832 832 832 832 832 832 833 833 833 833 833 833 833 832 831 831 831 832 832 833 833 833 833 832
809 809 809 806 814 826 833 847 853 850 863 869 871 882 883 883 882 880 879 878 879 878 877 875 875 879 879 882 883 884 888 888 887 888 887 885 883 879 875 871 868 866 864 861 857 855 853 850 848 846 844 841 840 838 837 836 835 833 833 833 832 832 832 831 830 830 830 830 830 830 831 830 830 831 831 831 831 831 832 832 832 832 832 832 833 833 832 831 831 831 831 832 832 833 833 833 833
810 810 809 810 822 832 836 851 862 867 879 877 875 884 884 884 884 883 880 879 880 878 878 877 878 879 881 886 886 888 891 889 889 889 887 884 882 879 874 871 869 866 864 861 858 855 852 850 848 846 843 841 839 837 836 834 833 833 833 832 832 831 830 830 828 828 828 828 829 829 830 830 830 830 830 830 830 831 831 831 831 831 831 832 832 832 832 831 830 830 831 831 832 832 832 833 832
810 812 814 818 831 837 845 861 869 878 886 884 883 887 886 887 886 884 881 880 880 879 879 879 880 878 881 887 886 889 891 891 891 888 887 884 880 877 874 871 868 866 863 860 858 855 852 850 847 845 842 840 838 836 834 833 832 832 831 831 831 830 829 828 828 827 827 827 828 828 828 829 829 829 829 829 830 830 830 830 830 830 831 831 831 831 831 831 830 830 830 831 831 832 832 832 832
811 816 819 826 842 849 859 872 877 882 887 888 888 889 889 889 888 885 882 881 881 882 880 880 880 878 883 885 884 888 891 891 890 888 887 883 880 876 873 871 868 865 862 860 857 855 852 849 846 844 842 839 838 836 834 832 831 831 830 830 829 829 828 827 827 827 826 826 826 827 827 827 827 828 828 828 829 829 829 830 829 830 830 830 830 831 831 831 830 830 830 830 831 831 831 832 832
813 818 823 831 849 860 869 877 883 886 888 890 889 891 891 890 889 886 884 884 885 885 883 882 880 879 883 884 884 888 890 890 889 888 885 882 879 875 873 870 868 864 862 859 856 854 851 848 846 843 841 839 837 835 833 831 831 830 829 828 827 827 826 826 825 825 825 825 825 825 826 826 826 826 827 827 828 828 829 829 829 829 829 829 830 830 830 830 830 830 830 830 830 831 831 831 832
817 823 827 835 848 861 872 878 884 888 890 891 891 892 892 891 890 888 886 887 887 886 885 884 882 881 884 884 885 887 889 890 888 886 884 881 878 875 873 870 868 864 861 859 856 853 850 848 845 842 840 838 836 834 832 830 829 828 827 826 825 825 824 824 824 824 823 823 824 824 824 825 825 825 826 826 827 827 828 828 828 828 828 828 829 829 830 830 830 830 830 830 830 830 830 831 831
823 829 828 839 851 859 871 880 886 890 892 891 891 893 893 893 890 889 887 887 888 886 887 885 884 886 885 884 885 888 890 889 887 885 883 880 878 875 872 869 867 864 861 858 855 853 850 847 844 842 839 837 835 833 831 830 828 826 825 824 823 823 822 822 822 822 821 821 822 822 823 823 823 824 825 825 826 827 827 827 827 827 827 827 827 828 828 829 829 830 830 830 829 829 830 830 831
826 834 831 846 860 864 873 880 887 890 891 891 892 894 894 894 892 892 890 889 889 886 889 888 889 889 886 886 885 888 889 889 888 886 883 880 878 875 872 870 867 864 861 858 855 852 849 846 844 841 839 836 834 832 831 829 827 825 823 822 822 821 820 820 820 821 821 820 820 820 821 821 822 823 824 824 824 825 826 826 826 826 826 826 826 826 827 827 828 829 829 829 829 829 830 830 830
830 836 834 857 871 870 875 880 887 888 889 893 895 897 896 895 894 895 892 891 891 889 891 892 892 890 888 888 886 888 888 889 889 886 884 880 878 875 872 870 867 864 861 857 855 852 849 846 843 840 838 835 833 831 829 828 826 824 823 821 820 819 818 818 818 819 819 819 818 818 819 820 821 822 822 822 822 823 824 825 825 825 825 825 826 825 826 826 827 828 828 829 829 829 829 830 830
837 838 840 867 879 875 880 882 886 884 889 897 898 900 897 897 897 896 893 891 894 894 894 894 893 890 890 889 885 888 889 890 889 886 884 880 878 875 872 869 866 864 861 858 855 852 849 845 842 839 837 834 832 829 827 826 824 823 821 820 818 817 816 816 816 816 817 817 817 816 817 818 818 820 820 820 821 822 823 823 824 824 824 825 825 825 825 826 826 826 827 828 828 828 828 829 829
840 842 846 869 878 878 884 885 885 883 892 900 899 902 898 898 899 897 896 894 896 896 895 894 893 891 893 893 889 890 891 890 889 886 883 879 877 874 871 869 866 864 860 857 854 852 848 845 842 839 837 834 831 829 826 824 822 821 820 819 817 816 815 814 813 813 814 814 815 815 815 816 816 817 817 818 819 820 821 821 822 822 823 823 823 824 824 824 825 825 826 827 827 827 828 828 829
843 842 847 866 875 879 887 889 887 885 894 900 899 902 898 898 900 897 898 896 895 896 895 895 894 894 895 895 893 893 892 890 888 885 882 879 876 874 872 869 866 864 860 857 854 851 848 845 843 839 837 834 832 829 826 824 822 820 819 818 816 814 813 812 811 811 812 812 813 813 813 814 814 815 815 816 817 817 818 819 820 821 821 822 822 822 822 823 823 824 825 826 827 826 826 827 828
844 843 852 869 877 881 889 890 889 889 896 899 899 901 896 897 898 898 900 897 895 896 895 895 896 896 896 896 895 895 893 890 888 885 882 879 877 874 871 869 866 863 860 858 855 851 848 845 843 840 837 834 832 830 827 824 822 820 818 816 814 813 812 811 810 809 809 810 811 811 811 812 812 813 813 814 815 815 816 817 818 819 820 820 821 821 822 822 822 823 824 824 826 825 825 826 827
847 852 862 877 884 887 894 893 893 894 896 898 899 901 897 896 898 898 898 896 895 895 895 895 896 895 896 896 896 894 892 890 888 885 883 880 877 875 872 869 866 864 861 858 855 852 848 845 843 840 837 835 833 830 828 825 822 820 817 815 814 812 811 810 808 807 807 807 808 808 808 810 810 810 811 812 813 813 814 815 816 817 818 819 819 820 820 821 821 822 823 824 824 824 824 825 826
857 863 871 884 891 894 898 897 898 898 897 899 900 902 899 899 900 898 896 895 894 893 894 894 894 894 895 895 895 894 892 890 888 886 884 881 879 876 874 871 868 866 863 859 856 853 849 846 843 841 839 836 833 830 829 827 823 821 818 815 813 811 810 809 807 806 805 804 805 806 806 807 807 807 808 809 811 811 812 812 814 815 816 817 818 818 819 819 820 821 823 823 822 823 824 824 825
865 868 878 893 895 898 901 899 901 900 900 899 899 902 901 901 902 898 896 895 893 894 896 895 894 894 894 894 894 893 891 889 888 886 884 882 880 878 876 873 871 868 865 862 859 855 851 847 844 841 840 837 833 831 829 827 824 821 819 815 813 811 809 807 806 805 804 803 803 803 803 804 805 805 805 806 809 809 810 810 811 813 814 815 816 817 817 817 819 820 822 822 821 822 823 824 825
871 875 884 897 896 898 902 902 903 903 903 901 900 902 900 901 902 900 897 894 893 895 898 899 897 896 895 894 894 892 891 888 887 885 884 883 881 879 877 875 872 870 867 863 861 857 853 849 845 842 840 837 834 831 829 827 824 822 819 816 813 811 809 807 805 804 803 801 800 800 801 801 802 802 803 805 807 807 808 809 809 810 811 812 813 814 815 816 817 818 820 821 820 820 822 823 824
880 890 892 897 897 898 903 904 905 906 905 903 901 901 901 902 902 901 899 895 896 898 900 900 899 898 896 895 894 892 890 888 887 885 884 883 881 879 877 875 873 870 867 864 861 858 855 851 847 843 840 837 835 832 829 827 825 822 819 816 813 811 809 807 804 802 801 800 798 798 797 798 799 800 801 802 804 805 806 807 808 808 809 811 812 812 813 814 815 816 818 819 819 820 822 823 823
882 897 899 899 898 899 904 905 907 908 904 902 902 903 903 900 900 904 902 899 900 901 901 901 899 899 897 896 894 891 890 888 887 886 885 884 882 880 877 875 873 870 868 865 862 858 855 852 848 845 841 838 835 832 829 827 825 823 820 817 814 811 809 806 804 801 799 798 796 796 795 795 796 797 798 800 802 804 804 805 806 806 808 809 810 811 812 812 813 815 816 816 817 818 820 821 822
880 895 901 901 901 902 906 906 908 908 903 904 905 904 903 899 900 902 901 900 901 901 901 901 899 898 897 895 893 891 890 889 888 886 885 884 882 880 878 876 874 871 868 865 862 859 856 852 848 846 842 839 836 832 830 828 825 822 820 817 814 811 808 805 803 801 798 797 795 794 793 792 792 793 795 797 799 801 802 803 804 805 806 808 809 809 810 810 811 813 813 813 814 816 818 820 822
886 895 901 902 903 904 906 906 906 906 904 906 904 901 902 901 902 900 900 900 900 900 900 899 898 896 895 893 892 891 890 888 887 886 885 884 882 880 878 876 874 872 869 866 862 860 856 853 849 847 843 840 837 833 830 828 825 822 820 817 814 811 808 805 802 800 797 795 794 792 791 790 789 790 792 795 797 799 800 801 803 804 805 806 807 807 808 808 809 810 811 812 813 815 817 819 822
893 896 900 901 903 905 905 904 905 905 905 904 901 900 902 904 903 899 899 900 900 900 898 898 897 895 893 892 891 890 889 888 887 886 885 883 881 880 878 876 874 872 869 866 863 860 857 853 850 847 844 841 838 834 831 829 825 822 819 817 814 811 808 804 802 799 797 794 793 791 789 788 787 787 789 792 795 798 799 800 801 802 803 804 805 806 806 806 807 808 810 812 813 815 817 819 821
897 897 900 902 903 904 904 903 905 905 905 905 900 898 901 904 902 896 897 899 900 899 896 896 895 893 892 891 891 890 889 888 887 886 884 883 881 879 877 875 874 872 869 866 864 861 857 854 851 848 845 841 839 836 832 829 826 822 820 817 814 811 808 804 801 799 796 794 792 790 788 787 786 785 786 790 794 796 798 799 799 800 801 803 803 804 805 805 807 808 809 811 812 814 817 818 820
898 898 899 902 902 902 903 903 904 904 903 906 903 900 900 901 900 898 900 900 900 899 895 894 894 893 892 891 890 890 888 888 887 886 884 883 882 880 877 875 873 871 869 867 864 861 858 855 852 848 845 842 839 836 833 830 827 824 821 818 815 811 808 805 802 799 796 794 792 790 787 786 786 785 784 788 793 796 797 798 798 798 799 801 802 802 803 804 806 808 810 811 812 814 816 817 818
900 898 895 899 898 898 905 905 904 903 902 907 906 898 895 897 899 900 902 901 900 898 894 893 893 893 892 891 890 889 888 888 886 885 885 884 882 881 878 876 874 872 869 867 864 862 859 855 852 849 846 843 840 837 834 831 829 826 822 819 815 811 808 805 802 799 797 795 793 789 787 787 787 785 785 788 793 796 797 798 798 797 797 799 800 801 802 802 804 807 809 811 812 813 814 814 816
899 898 894 894 891 895 907 908 904 902 902 908 905 893 890 896 899 901 903 903 900 895 893 893 893 893 892 891 890 889 888 887 887 886 885 884 882 881 878 876 874 872 870 867 864 862 859 856 853 850 847 844 841 839 835 832 830 827 824 820 815 812 809 806 803 800 797 796 793 789 788 787 785 785 786 789 793 795 796 798 797 796 796 796 798 799 800 802 803 805 808 809 810 811 812 813 815
897 898 895 892 889 894 908 911 905 901 902 906 901 890 890 897 898 900 903 903 901 895 893 893 892 893 891 891 889 888 887 886 886 886 885 884 882 881 878 876 874 872 870 867 865 862 859 857 854 851 849 845 843 840 836 833 831 828 825 821 816 812 809 807 804 800 798 796 793 790 789 786 784 786 788 790 792 793 795 797 796 795 795 795 797 798 798 800 801 802 805 805 807 810 811 812 815
895 893 892 895 893 895 906 914 911 906 905 903 898 890 890 896 897 901 904 903 902 897 894 894 893 892 891 890 889 887 887 886 885 885 884 883 882 881 878 876 874 872 870 868 865 863 860 858 856 853 850 847 844 841 838 835 832 829 826 822 817 812 810 808 805 801 799 797 794 792 790 786 784 787 789 790 792 793 795 796 796 796 795 795 799 800 799 800 800 802 805 804 804 807 809 812 816
893 892 897 905 900 895 900 908 912 910 905 899 894 891 893 897 897 900 903 903 901 897 894 894 892 892 891 889 889 888 886 885 884 883 884 883 882 880 878 876 874 873 871 868 866 863 861 859 857 854 851 848 845 841 838 836 833 830 827 822 817 814 811 809 806 802 800 798 796 795 792 788 787 789 790 792 793 793 795 795 795 796 795 795 800 802 801 801 802 803 807 809 806 806 809 813 817
897 898 904 912 911 903 900 903 910 910 904 899 894 893 896 898 897 899 902 903 900 896 894 894 893 892 891 890 888 887 886 885 884 883 883 883 881 880 878 877 875 873 871 869 867 864 863 861 858 856 852 849 846 841 838 837 835 832 828 823 819 816 813 810 807 803 801 800 798 796 794 791 791 792 792 793 795 796 796 796 795 797 797 796 799 802 803 804 804 804 808 812 811 808 811 815 819
909 909 906 910 912 910 908 908 913 915 907 901 897 895 897 897 897 897 899 901 900 897 895 895 894 893 891 890 888 887 886 885 884 883 883 882 881 880 878 876 874 873 871 869 868 866 864 862 860 857 853 850 846 842 840 838 835 833 829 825 821 819 816 813 809 805 803 802 798 797 797 795 795 795 795 795 797 798 798 797 797 798 799 798 799 802 804 805 804 805 808 810 812 812 814 816 819
918 921 917 915 912 908 913 914 919 924 913 904 904 902 901 898 896 896 897 899 898 896 896 895 893 893 891 890 888 887 886 884 884 883 882 882 881 879 878 876 874 873 872 870 868 867 865 863 860 858 854 850 847 844 841 839 836 833 830 827 823 820 817 814 811 809 806 802 798 798 799 800 800 798 798 799 800 801 801 800 799 800 800 801 801 803 804 804 804 807 810 810 811 814 817 818 819
923 923 920 922 917 907 913 916 920 926 914 906 910 906 901 899 896 897 897 897 897 894 894 893 892 892 891 890 888 887 886 885 884 883 882 881 880 879 878 876 875 873 872 871 869 867 865 863 861 859 855 852 849 845 843 840 837 835 832 830 827 823 820 817 813 810 807 805 802 801 802 803 803 801 801 803 804 804 804 802 802 802 802 802 802 803 804 804 805 807 810 812 812 814 818 820 821
924 920 918 917 915 909 912 918 921 923 912 903 908 904 897 897 896 897 898 896 895 896 895 893 892 892 890 890 889 887 886 884 884 882 881 881 879 879 878 876 874 873 871 870 869 868 866 864 862 860 857 854 851 848 845 843 840 838 835 833 831 827 824 821 817 813 811 809 807 805 805 805 805 803 803 806 807 807 806 805 804 804 804 803 803 804 805 805 806 808 809 812 814 814 818 821 822
920 917 916 910 913 914 911 919 923 920 911 902 908 907 894 895 897 895 897 897 895 897 898 896 895 893 890 889 889 888 887 884 883 882 881 880 879 878 877 876 874 873 871 870 869 868 867 865 863 861 858 856 853 851 848 845 843 840 838 836 834 831 829 826 822 819 816 814 811 809 809 808 806 805 805 807 810 810 809 807 805 805 805 805 805 806 807 808 808 810 811 812 814 816 819 822 823
921 919 914 909 919 918 906 914 923 921 918 913 915 911 895 893 896 895 895 897 898 897 898 897 896 894 891 890 890 889 888 885 883 882 881 880 879 878 877 876 875 873 871 870 869 868 867 866 865 862 860 857 855 853 851 848 845 843 840 838 836 834 832 830 827 824 821 819 817 815 813 812 811 809 808 809 813 813 812 810 807 807 807 808 808 808 809 810 811 813 814 814 815 818 821 823 824
925 928 920 917 927 928 918 919 923 920 920 922 918 904 892 892 893 891 893 896 896 895 895 894 893 893 892 890 890 889 887 886 884 882 881 880 878 877 876 875 874 873 871 870 869 868 867 867 865 864 862 859 856 855 853 850 848 845 842 839 837 835 834 831 828 826 824 822 820 819 818 816 815 813 813 814 816 816 814 812 810 809 810 810 810 810 811 813 815 816 817 817 818 819 820 823 826
920 930 931 930 934 936 930 926 922 906 903 922 921 892 880 892 895 890 891 893 891 891 893 891 889 890 889 888 887 886 886 885 884 883 881 880 878 877 876 874 874 872 871 870 869 868 867 867 866 864 863 861 858 856 854 852 850 847 844 841 838 837 835 833 831 829 827 826 824 823 822 821 819 818 818 819 819 818 815 814 813 812 813 813 812 813 813 815 817 818 819 820 820 820 820 822 826
910 928 939 938 939 935 930 926 916 896 897 923 927 898 881 887 890 889 892 893 889 888 890 888 888 888 886 886 886 885 886 884 883 882 881 879 878 876 875 874 873 872 871 870 868 868 867 866 866 865 864 862 860 858 856 854 852 850 848 845 842 840 838 836 835 833 831 829 829 828 826 825 824 823 822 822 821 819 817 816 816 816 816 816 816 815 816 817 818 819 820 821 821 822 822 823 825
913 935 943 938 937 932 931 927 913 910 916 919 922 914 896 883 883 889 894 893 887 885 887 886 887 887 885 885 885 885 885 884 884 882 880 879 878 876 875 874 873 871 870 869 868 867 866 866 865 865 864 863 861 859 858 856 854 853 851 849 847 844 842 840 838 836 834 833 831 829 828 827 827 826 825 825 823 822 821 820 820 820 820 820 820 819 818 819 820 821 822 822 823 823 824 824 825
924 943 943 938 939 934 936 926 912 926 922 898 910 923 898 875 880 891 894 891 885 883 884 885 886 886 886 886 885 885 884 883 884 882 880 880 878 877 875 873 872 871 870 868 867 867 865 865 864 864 864 862 862 860 859 858 856 854 853 851 850 848 846 844 842 840 838 836 834 832 831 830 829 829 828 827 826 825 824 825 825 825 824 824 824 823 822 822 822 823 824 824 825 825 826 826 826
935 945 941 941 942 938 938 920 908 922 909 890 913 924 897 875 876 885 889 889 884 881 882 884 886 886 886 886 885 885 884 883 883 882 880 879 878 877 874 872 871 870 869 868 867 866 865 864 863 863 863 862 861 861 859 858 857 856 854 853 852 851 849 848 846 844 842 840 838 836 835 834 833 832 831 830 829 829 828 829 829 828 827 827 826 826 825 825 825 825 826 827 828 828 828 828 828
939 941 935 933 931 931 931 920 914 908 890 899 924 925 909 887 873 876 881 883 883 882 882 883 885 886 885 885 885 884 884 883 882 881 880 878 877 876 874 872 871 869 868 867 866 866 864 863 862 862 861 861 860 860 859 858 857 856 855 854 853 852 851 850 849 847 845 844 842 840 839 838 837 835 834 834 833 832 832 832 831 830 830 829 829 828 828 827 827 827 828 829 830 830 830 830 830
939 934 926 916 911 915 912 907 912 892 876 908 931 928 922 897 873 874 877 881 885 884 884 883 883 885 884 884 884 884 884 884 883 881 879 878 876 875 873 872 870 868 867 866 865 865 864 863 862 861 860 860 859 859 859 858 857 856 855 854 853 852 851 850 850 850 848 847 846 844 843 841 840 839 838 837 836 835 835 834 833 832 832 831 830 830 829 829 829 829 830 830 831 831 832 831 831
929 924 919 900 888 894 890 889 899 886 884 921 936 927 919 892 871 874 877 880 885 884 884 884 884 884 884 884 884 884 884 883 882 881 879 878 876 874 873 871 870 868 867 866 865 864 863 862 861 860 859 859 858 857 857 857 857 856 855 854 853 852 851 850 850 849 849 849 848 847 846 845 843 842 841 840 839 838 837 836 836 834 834 833 832 832 831 831 831 831 831 832 832 832 833 833 832
921 925 920 896 888 895 892 896 904 894 897 925 940 928 904 878 869 876 879 881 885 887 888 888 888 888 886 886 886 885 884 883 881 881 879 877 876 874 873 871 869 868 866 865 864 863 862 861 860 859 858 858 857 856 856 856 855 855 854 854 853 852 851 850 849 849 848 848 847 847 847 846 845 844 843 842 841 840 839 838 837 837 836 835 834 834 833 833 833 833 833 833 833 833 833 833 833
929 938 928 907 910 911 901 902 901 899 907 920 933 923 889 872 877 882 884 887 889 891 891 892 892 891 890 889 887 885 883 881 880 879 878 876 875 874 872 870 869 867 866 865 863 862 861 860 859 858 857 856 856 855 855 854 854 854 853 853 853 852 851 850 850 849 848 847 847 846 846 846 845 845 844 843 842 842 841 840 839 838 837 837 836 836 835 835 835 835 835 835 834 834 834 834 834
931 939 926 918 931 929 927 940 941 941 936 919 915 906 882 878 884 887 890 890 889 889 889 891 889 888 890 888 885 883 881 880 878 877 876 875 874 873 871 870 868 867 865 864 863 862 860 859 858 857 856 855 855 854 854 853 853 852 852 852 852 851 851 850 850 849 848 847 847 846 845 845 845 844 844 843 843 842 842 841 840 839 839 838 837 837 837 837 837 837 837 837 836 836 836 835 835
927 928 926 937 951 942 937 955 971 968 939 908 903 895 880 878 879 885 890 886 885 886 884 886 885 885 887 884 881 880 879 878 877 876 875 873 872 871 870 869 868 866 865 863 862 861 860 859 857 856 855 854 853 852 852 852 851 851 851 850 850 850 850 849 849 848 848 847 846 846 845 844 844 843 843 843 842 842 842 841 841 840 839 839 838 838 838 837 837 837 837 837 837 837 837 836 836
928 923 936 949 953 947 935 930 937 934 909 897 904 900 888 881 875 879 885 881 879 881 881 883 883 882 883 880 878 878 877 877 876 874 873 871 870 869 867 867 866 865 864 862 861 860 859 858 856 855 854 853 852 851 850 850 849 849 849 849 848 848 848 848 847 847 847 846 846 845 845 844 844 843 842 842 842 841 841 841 841 840 840 839 839 838 838 837 837 837 837 837 837 837 836 836 836
939 934 947 947 934 931 931 924 920 916 909 903 902 901 896 883 874 873 877 878 876 876 880 881 879 879 878 877 877 876 876 876 874 873 871 870 868 866 865 864 863 863 862 861 860 858 857 856 855 854 853 852 851 850 849 848 848 847 847 847 847 846 846 846 846 846 845 845 845 844 844 844 843 843 842 842 841 841 840 840 840 840 840 839 839 838 838 838 837 837 837 837 837 836 836 836 836
947 942 946 948 940 937 936 937 933 922 917 914 906 897 883 872 873 873 871 875 875 875 878 877 876 877 876 876 876 876 876 875 873 872 870 868 867 865 863 862 860 860 859 858 857 856 855 854 853 852 851 850 849 848 848 847 846 846 845 845 844 844 844 844 844 844 843 843 843 843 842 843 842 842 842 841 841 841 840 840 840 839 839 839 839 838 838 838 837 837 837 836 836 836 836 836 836
940 935 937 941 948 955 949 951 958 942 923 927 929 906 873 867 877 874 869 874 875 876 878 876 876 876 875 877 876 876 875 873 872 870 868 867 865 863 861 859 858 857 856 855 854 854 853 852 851 851 849 848 848 847 846 845 844 844 843 842 842 842 842 842 841 841 841 841 841 841 840 841 841 840 841 840 840 840 840 839 839 839 838 838 838 838 838 838 837 837 836 836 835 835 835 835 835
946 936 935 934 940 947 934 939 970 972 948 942 945 922 882 874 884 880 876 881 881 883 884 880 878 877 876 877 875 875 874 872 871 869 867 866 863 861 860 857 856 855 853 853 852 851 851 850 849 848 847 846 845 845 844 843 842 841 841 840 840 840 839 839 839 839 838 838 838 838 838 838 838 838 838 838 838 839 839 838 838 838 838 837 837 837 837 837 837 836 836 835 835 835 834 834 834